Погода в Старых Карамалах

Россия / Республика Татарстан     55°19′01″N   53°33′01″E
темп.,
°C
ветер,
м/с
пор.,
м/с
влажн.,
%
обл.,
%
осадки,
мм/ч
давл.,
гПа
погр.,
м
19 апреля, пн
пн1900:00+2всв71353100 0.0 1026658
03:00+1всв7135540 0.0 1027641
06:000всв8135595 0.0 1028664
09:00+3в81044100 0.0 10291055
12:00+6в893629 0.0 10291487
15:00+7в89285 0.0 10291679
18:00+5всв611340 0.0 1030584
21:00+2в614410 0.0 1031506
20 апреля, вт
вт2000:000в511540 0.0 1032262
03:00−1вюв49560 0.0 1034223
06:000вюв59430 0.0 1034450
09:00+4вюв57290 0.0 10341082
12:00+7вюв56260 0.0 10331326
15:00+8вюв45270 0.0 10321335
18:00+6вюв35390 0.0 103191
21:00+3юв33454 0.0 103251
21 апреля, ср
ср2100:00+2вюв36475 0.0 103196
03:00+1вюв3552100 0.0 103169
06:00+3ююв41050100 0.0 1031396
09:00+7ююв71034100 0.0 1030827
12:00+10ююв81128100 0.0 10281191
15:00+11ююв71129100 0.0 10271397
18:00+9ююв61236100 0.0 1027543
21:00+7ю61247100 0.0 1027744
22 апреля, чт
чт2200:00+6ю51165100 0.1 1028960
03:00+4ю61392100 0.7 1028765
06:00+4ю61396100 0.6 1028704
09:00+4ю61296100 2.1 1029677
12:00+4ю61295100 1.8 1029841
15:00+4ю61186100 1.9 1029671
18:00+4ю51097100 0.0 1030534
21:00+4ю51095100 0.3 1030512
23 апреля, пт
пт2300:00+4ю4895100 0.0 1029544
03:00+4ю4698100 0.5 1029591
06:00+4ююв3498100 1.3 1029603
09:00+4ююв3597100 1.9 1028637
12:00+5юв2493100 0.6 1027591
15:00+6в229199 1.0 1027230
18:00+6св2491100 0.0 1025156
21:00+5всв3893100 0.0 1024216